Regional Weather Roundup
Issued by NWS

Home | Current Version | Previous Version | Graphics & Text | Print | Product List | Glossary On
Versions: 1 2 3 4 5 6 7 8 9 10 11 12 13 14 15 16 17 18 19 20 21 22 23 24 25 26 27 28 29 30 31 32 33 34 35 36 37 38 39 40 41 42 43 44 45 46 47 48 49 50
516
ASUS43 KTOP 131808
RWRKS

WEATHER ROUNDUP FOR KANSAS
NATIONAL WEATHER SERVICE GOODLAND KS
1200 PM CST WED DEC 13 2017

NOTE:  "FAIR" INDICATES FEW OR NO CLOUDS BELOW 12,000 FEET WITH NO
SIGNIFICANT WEATHER AND/OR OBSTRUCTIONS TO VISIBILITY.

KSZ001>006-013>018-027>032-041>047-131900-
NORTHWEST KANSAS

CITY           SKY/WX    TMP DP  RH WIND       PRES   REMARKS
GOODLAND       SUNNY     52  14  22 N26G40    30.05F
6HR MIN TEMP:  40; 6HR MAX TEMP:  53;

HAYS           SUNNY     59  20  22 NW26G35   29.96F
HILL CITY      SUNNY     59  22  24 N31G41    29.98F
6HR MIN TEMP:  43; 6HR MAX TEMP:  59;

RUSSELL        SUNNY     60  19  20 NW23G37   29.93F
6HR MIN TEMP:  42; 6HR MAX TEMP:  60;

$$

KSZ061>065-074>080-084>089-131900-
SOUTHWEST KANSAS

CITY           SKY/WX    TMP DP  RH WIND       PRES   REMARKS
DODGE CITY     SUNNY     57  17  21 N23G37    30.01F
6HR MIN TEMP:  36; 6HR MAX TEMP:  58;

ELKHART        SUNNY     62  23  22 N24G32    30.08F
GARDEN CITY    CLOUDY    56  15  20 N29G39    30.02F
6HR MIN TEMP:  37; 6HR MAX TEMP:  59;

GREAT BEND     SUNNY     61  18  18 NW25G33   29.95F
LIBERAL        CLOUDY    61  16  17 N23G29    30.05F
PRATT          PTSUNNY   55  17  22 NW14G20   29.96F
6HR MIN TEMP:  39; 6HR MAX TEMP:  56;

$$

KSZ066>073-081>083-090>101-131900-
SOUTHEAST KANSAS

CITY           SKY/WX    TMP DP  RH WIND       PRES   REMARKS
CHANUTE        CLOUDY    60  25  26 NW16G25   29.83F
6HR MIN TEMP:  32; 6HR MAX TEMP:  60;

COFFEYVILLE    MOSUNNY   54  28  36 W5        29.87F
6HR MIN TEMP:  33; 6HR MAX TEMP:  55;

HUTCHINSON     SUNNY     63  21  20 NW20G29   29.91F
6HR MIN TEMP:  37; 6HR MAX TEMP:  63;

MEDICINE LODGE   N/A     62  20  19 N23G32    29.95F
NEWTON         SUNNY     60  22  23 NW29G35   29.88F
PARSONS        PTSUNNY   60  25  26 NW14      29.86F
6HR MIN TEMP:  30; 6HR MAX TEMP:  61;

WICHITA INTL   MOSUNNY   62  22  21 N21G29    29.90F
6HR MIN TEMP:  27; 6HR MAX TEMP:  62;

WICHITA JABRA  CLOUDY    61  22  22 NW24G33   29.89F
6HR MIN TEMP:  36; 6HR MAX TEMP:  61;

WICHITA MCCONL MOSUNNY   58  20  22 N20G25    29.89F
WINFIELD       MOSUNNY   59  22  24 NW21G28   29.92F
6HR MIN TEMP:  23; 6HR MAX TEMP:  60;

$$

KSZ007>012-019>026-033>040-048>060-102>105-131900-
NORTHEAST KANSAS

CITY           SKY/WX    TMP DP  RH WIND       PRES   REMARKS
CONCORDIA      SUNNY     57  22  25 NW26G36   29.88F
6HR MIN TEMP:  40; 6HR MAX TEMP:  58;

EMPORIA        SUNNY     59  24  26 NW20G35   29.84F
6HR MIN TEMP:  39; 6HR MAX TEMP:  60;

LAWRENCE       SUNNY     61  29  29 NW29G38   29.77S
6HR MIN TEMP:  29; 6HR MAX TEMP:  61;

MANHATTAN      SUNNY     61  26  26 N16G23    29.84F
6HR MIN TEMP:  28; 6HR MAX TEMP:  61;

MARYSVILLE     SUNNY     55  27  33 NW31G41   29.83S
OLATHE IND     SUNNY     59  28  30 NW29G40   29.76F
6HR MIN TEMP:  33; 6HR MAX TEMP:  59;

OLATHE EXE     SUNNY     58  28  32 NW16G38   29.74F
6HR MIN TEMP:  34; 6HR MAX TEMP:  58;

SALINA         SUNNY     62  23  22 NW24      29.89F
6HR MIN TEMP:  45; 6HR MAX TEMP:  62;

TOPEKA BILLARD SUNNY     61  29  29 NW24G33   29.78F
6HR MIN TEMP:  35; 6HR MAX TEMP:  61;

TOPEKA FORBES  SUNNY     62  28  27 NW28G43   29.79R
6HR MIN TEMP:  32; 6HR MAX TEMP:  62;

$$




USA.gov is the U.S. government's official web portal to all federal, state and local government web resources and services.